155P/Shoemaker 3 (2002)

Japanese version
Home page
Updated on September 29, 2004

---------------------------------------------------------------------

* Profile

Designation 155P/2002 R2
Recovery Date September 9 and 12, 2002
Magnitude 18.0 mag, 18.6 mag
Discoverer T. Oribe (Saji), A. Nakamura (Kuma)

* Pictures

* Orbital Elements

Epoch 2003 Jan. 1.0 TT = JDT 2452640.5
T 2002 Dec. 14.88307 TT                                 MPC
q   1.8136046            (2000.0)            P               Q
n   0.05762238     Peri.   14.92931     -0.37628843     -0.91990894
a   6.6385811      Node    97.27277     +0.83824380     -0.38874899
e   0.7268084      Incl.    6.38642     +0.39465725     -0.05139816
P  17.10

* Finding Charts

* Magnitudes Graph

        m1 = 7.5 + 5 log d + 27 log r(t - 28)

---------------------------------------------------------------------

The orbital elements are published on M.P.E.C. 2002-R69.
The charts are made with StellaNavigator Ver.2.0 for Windows (AstroArts / ASCII).
The magnitudes graphs are made with Comet for Windows.

---------------------------------------------------------------------

Copyright(C) Seiichi Yoshida (comet@aerith.net). All rights reserved.